This is the latest recevied weather packets stored in our database for station/object KQ4DLB-13. If no packets are shown the sender has not sent any weather packets the latest 1 day(s).
| Time | Temp. | Humidity | Pressure | Rain* | Wind** | Luminosity | Snow |
|---|---|---|---|---|---|---|---|
| 1777994102 | 18.89° C | 66% | 987.3 hPa | 0 mm | 3.13 m/s, 339° | 247 W/m² | - |
| 1777993802 | 18.89° C | 66% | 987.3 hPa | 0 mm | 2.24 m/s, 8° | 285 W/m² | - |
| 1777993502 | 18.89° C | 66% | 987.3 hPa | 0 mm | 1.79 m/s, 32° | 291 W/m² | - |
| 1777993202 | 18.33° C | 66% | 987.3 hPa | 0 mm | 2.24 m/s, 243° | 283 W/m² | - |
| 1777992901 | 18.33° C | 66% | 987.3 hPa | 0 mm | 3.13 m/s, 343° | 280 W/m² | - |
| 1777992603 | 18.33° C | 67% | 987.3 hPa | 0 mm | 2.68 m/s, 332° | 254 W/m² | - |
| 1777992302 | 18.33° C | 67% | 987.2 hPa | 0 mm | 3.58 m/s, 340° | 228 W/m² | - |
| 1777992002 | 18.33° C | 67% | 987.1 hPa | 0 mm | 3.13 m/s, 230° | 224 W/m² | - |
| 1777991702 | 17.78° C | 68% | 987 hPa | 0 mm | 2.24 m/s, 197° | 237 W/m² | - |
| 1777991402 | 17.78° C | 68% | 987 hPa | 0 mm | 2.24 m/s, 212° | 221 W/m² | - |
| 1777991102 | 17.78° C | 68% | 987 hPa | 0 mm | 3.58 m/s, 184° | 210 W/m² | - |
| 1777990802 | 17.78° C | 68% | 987.1 hPa | 0 mm | 3.58 m/s, 323° | 223 W/m² | - |
| 1777990502 | 17.78° C | 69% | 987.1 hPa | 0 mm | 2.68 m/s, 255° | 222 W/m² | - |
| 1777990202 | 17.78° C | 68% | 986.9 hPa | 0 mm | 2.68 m/s, 171° | 221 W/m² | - |
| 1777989902 | 17.78° C | 68% | 986.9 hPa | 0 mm | 2.68 m/s, 316° | 215 W/m² | - |
| 1777989602 | 17.22° C | 68% | 986.9 hPa | 0 mm | 3.13 m/s, 342° | 205 W/m² | - |
| 1777989302 | 17.22° C | 68% | 986.8 hPa | 0 mm | 3.13 m/s, 323° | 202 W/m² | - |
| 1777989002 | 17.22° C | 68% | 986.8 hPa | 0 mm | 2.24 m/s, 260° | 197 W/m² | - |
| 1777988702 | 17.22° C | 68% | 986.9 hPa | 0 mm | 3.58 m/s, 287° | 199 W/m² | - |
| 1777988402 | 17.22° C | 68% | 986.9 hPa | 0 mm | 2.24 m/s, 193° | 206 W/m² | - |
| 1777988102 | 17.22° C | 69% | 986.9 hPa | 0 mm | 3.13 m/s, 244° | 217 W/m² | - |
| 1777987801 | 16.67° C | 69% | 986.9 hPa | 0 mm | 2.68 m/s, 320° | 211 W/m² | - |
| 1777987502 | 16.67° C | 69% | 986.8 hPa | 0 mm | 2.68 m/s, 243° | 191 W/m² | - |
| 1777987202 | 16.67° C | 70% | 986.7 hPa | 0 mm | 2.68 m/s, 12° | 171 W/m² | - |
| 1777986902 | 16.67° C | 70% | 986.5 hPa | 0 mm | 2.68 m/s, 303° | 146 W/m² | - |
* Rain latest hour (hover to see other rain measurements)
** Current wind speed in m/s (hover to see current wind gust speed)